Weather reports worldwide

Advertisment
Portland Intl OR, United States of America (72698): temperature & dewpoint: 31.07.2020 15:00:00 - 06.08.2020 15:00:00 (PDT)Portland Intl OR, United States of America (72698): wind speed: 31.07.2020 15:00:00 - 06.08.2020 15:00:00 (PDT)Portland Intl OR, United States of America (72698): wind direction: 31.07.2020 15:00:00 - 06.08.2020 15:00:00 (PDT)Portland Intl OR, United States of America (72698): reduced air pressure: 31.07.2020 15:00:00 - 06.08.2020 15:00:00 (PDT)Portland Intl OR, United States of America (72698): visibility: 31.07.2020 15:00:00 - 06.08.2020 15:00:00 (PDT)Portland Intl OR, United States of America (72698): precipitation: 31.07.2020 15:00:00 - 06.08.2020 15:00:00 (PDT)
Date & Time tt [°C] td [°C] ff [km/h] ff [kn] dd ppp [hPa] vv [km] rr [mm]
06.08.2020 15:00:00 21,1 12,2 8 4 WNW 1016,8 16 -
06.08.2020 14:00:00 19,4 13,3 9 5 WNW 1016,7 16 -
06.08.2020 13:00:00 17,2 15,0 9 5 WNW 1016,6 16 0,0
06.08.2020 12:00:00 17,8 16,1 5 3 - 1016,1 16 0,0
06.08.2020 11:00:00 16,7 15,0 8 4 W 1015,5 16 0,3
06.08.2020 10:00:00 15,0 14,4 5 3 SW 1015,0 6 0,0
06.08.2020 09:00:00 15,0 13,9 5 3 S 1014,6 4,0 2,3
06.08.2020 08:00:00 14,4 13,3 9 5 SSW 1014,0 4,8 0,3
06.08.2020 07:00:00 15,0 12,8 15 8 S 1013,4 4,8 0,0
06.08.2020 06:00:00 16,1 11,7 11 6 S 1012,8 16 -
06.08.2020 05:00:00 15,6 11,7 8 4 SSE 1012,9 16 0,0
06.08.2020 04:00:00 16,1 11,7 13 7 S 1013,1 16 -
06.08.2020 03:00:00 17,2 11,7 0 0 N 1012,8 16 -
06.08.2020 02:00:00 17,2 11,7 5 3 NNW 1013,1 16 -
06.08.2020 01:00:00 17,8 11,7 5 3 WSW 1013,3 16 -
06.08.2020 00:00:00 17,8 11,7 11 6 NNW 1012,9 16 -
05.08.2020 23:00:00 18,3 12,2 13 7 NNW 1012,6 16 0,0
05.08.2020 22:00:00 20,6 12,2 16 9 N 1012,1 16 -
05.08.2020 21:00:00 22,2 11,7 11 6 N 1011,4 16 -
05.08.2020 20:00:00 24,4 12,2 13 7 NNW 1010,8 16 -
05.08.2020 19:00:00 26,7 12,2 18 10 N 1010,3 16 -
05.08.2020 18:00:00 28,3 12,2 11 6 NNW 1010,3 16 -
05.08.2020 17:00:00 29,4 11,1 16 9 NW 1010,6 16 0,0
05.08.2020 16:00:00 28,3 12,8 11 6 NW 1011,3 16 -
05.08.2020 15:00:00 27,8 11,7 13 7 WNW 1012,1 16 -
05.08.2020 14:00:00 26,1 11,1 13 7 WNW 1012,9 16 -
05.08.2020 13:00:00 25,0 11,1 16 9 WNW 1013,5 16 -
05.08.2020 12:00:00 23,9 12,2 16 9 W 1014,2 16 -
05.08.2020 11:00:00 22,2 12,2 8 4 - 1014,8 16 0,0
05.08.2020 10:00:00 20,0 11,7 8 4 WNW 1015,2 16 -
05.08.2020 09:00:00 18,9 12,2 8 4 NW 1015,4 16 -
05.08.2020 08:00:00 17,8 12,2 5 3 N 1015,3 16 -
05.08.2020 07:00:00 16,7 12,2 11 6 NW 1015,1 16 -
05.08.2020 06:00:00 16,7 12,8 8 4 NW 1014,9 16 -
05.08.2020 05:00:00 17,8 13,3 8 4 NW 1014,7 16 0,0
05.08.2020 04:00:00 18,9 13,9 0 0 N 1014,4 16 -
05.08.2020 03:00:00 19,4 13,9 0 0 N 1014,3 16 -
05.08.2020 02:00:00 20,0 13,9 8 4 NNW 1014,1 16 -
05.08.2020 01:00:00 20,6 14,4 15 8 NW 1014,0 16 -
05.08.2020 00:00:00 21,7 15,0 13 7 NW 1013,9 16 -
04.08.2020 23:00:00 22,8 16,1 11 6 NW 1013,8 16 0,0
04.08.2020 22:00:00 23,9 16,1 15 8 NW 1013,7 16 -
04.08.2020 21:00:00 25,6 15,6 9 5 NNW 1013,1 16 -
04.08.2020 20:00:00 27,2 16,1 15 8 NW 1012,7 16 -
04.08.2020 19:00:00 29,4 15,0 26 14 WNW 1012,9 16 -
04.08.2020 18:00:00 30,6 13,9 22 12 NW 1013,4 16 -
04.08.2020 17:00:00 30,0 13,3 21 11 WNW 1014,1 16 0,0
04.08.2020 16:00:00 28,9 14,4 21 11 WNW 1014,9 16 -
04.08.2020 15:00:00 28,3 13,9 13 7 WNW 1015,6 16 -
04.08.2020 14:00:00 26,7 14,4 15 8 WNW 1016,4 16 -
04.08.2020 13:00:00 25,6 15,0 15 8 WNW 1017,2 16 -
04.08.2020 12:00:00 23,9 15,0 5 3 SSW 1017,7 16 -
04.08.2020 11:00:00 22,2 15,0 8 4 NW 1018,2 16 0,0
04.08.2020 10:00:00 20,0 15,0 9 5 WNW 1018,7 16 -
04.08.2020 09:00:00 18,9 15,0 9 5 - 1018,9 16 -
04.08.2020 08:00:00 17,8 14,4 5 3 N 1018,7 16 -
04.08.2020 07:00:00 17,2 13,9 0 0 N 1018,7 16 -
04.08.2020 06:00:00 17,2 13,9 5 3 NNW 1018,5 16 -
04.08.2020 05:00:00 17,2 13,9 5 3 - 1018,4 16 0,0
04.08.2020 04:00:00 17,8 14,4 11 6 NNW 1018,5 16 -
04.08.2020 03:00:00 18,9 15,0 0 0 N 1018,5 16 -
04.08.2020 02:00:00 18,9 15,0 9 5 NNW 1018,4 16 -
04.08.2020 01:00:00 20,0 15,0 18 10 NW 1018,5 16 -
04.08.2020 00:00:00 21,1 15,0 13 7 WNW 1018,6 16 -
03.08.2020 23:00:00 21,7 15,0 15 8 NW 1018,7 16 0,0
03.08.2020 22:00:00 23,3 13,9 15 8 NNW 1018,7 16 -
03.08.2020 21:00:00 24,4 13,9 15 8 N 1018,3 16 -
03.08.2020 20:00:00 26,7 13,3 8 4 NNW 1018,2 16 -
03.08.2020 19:00:00 27,8 12,2 11 6 NNW 1018,6 16 -
03.08.2020 18:00:00 28,3 12,2 13 7 NW 1018,9 16 -
03.08.2020 17:00:00 28,3 12,2 18 10 W 1019,3 16 0,0
03.08.2020 16:00:00 27,8 12,2 15 8 WNW 1019,8 16 -
03.08.2020 15:00:00 27,8 12,8 21 11 NW 1020,3 16 -
03.08.2020 14:00:00 26,7 12,8 13 7 W 1020,6 16 -
03.08.2020 13:00:00 25,0 13,3 11 6 - 1020,9 16 -
03.08.2020 12:00:00 23,9 13,9 8 4 W 1021,4 16 -
03.08.2020 11:00:00 22,2 13,9 8 4 N 1021,6 16 0,0
03.08.2020 10:00:00 21,7 14,4 0 0 N 1021,9 16 -
03.08.2020 09:00:00 20,6 14,4 5 3 - 1022,1 16 -
03.08.2020 08:00:00 18,9 14,4 5 3 ENE 1022,0 16 -
03.08.2020 07:00:00 17,8 13,9 5 3 E 1021,8 16 -
03.08.2020 06:00:00 17,2 13,3 5 3 E 1021,3 16 -
03.08.2020 05:00:00 17,8 13,3 8 4 NE 1021,2 16 0,0
03.08.2020 04:00:00 17,8 12,8 9 5 ENE 1020,9 16 -
03.08.2020 03:00:00 18,3 12,2 0 0 N 1020,5 16 -
03.08.2020 02:00:00 18,9 11,7 0 0 N 1019,9 16 -
03.08.2020 01:00:00 18,9 11,7 9 5 NW 1019,5 16 -
03.08.2020 00:00:00 20,6 11,1 8 4 WNW 1019,1 16 -
02.08.2020 23:00:00 21,1 11,1 8 4 NNW 1018,8 16 0,0
02.08.2020 22:00:00 21,7 11,1 15 8 NNW 1018,6 16 -
02.08.2020 21:00:00 23,3 12,8 16 9 NNW 1017,8 16 -
02.08.2020 20:00:00 25,0 13,9 18 10 NNW 1017,0 16 -
02.08.2020 19:00:00 27,8 13,9 16 9 NNW 1016,7 16 -
02.08.2020 18:00:00 30,0 12,8 16 9 NW 1016,5 16 -
02.08.2020 17:00:00 30,0 12,2 9 5 - 1016,6 16 0,0
02.08.2020 16:00:00 29,4 11,1 5 3 - 1017,1 16 -
02.08.2020 15:00:00 28,3 13,9 9 5 NNW 1017,4 16 -
02.08.2020 14:00:00 27,2 13,9 9 5 N 1017,6 16 -
02.08.2020 13:00:00 25,6 14,4 9 5 - 1018,3 16 -
02.08.2020 12:00:00 23,9 14,4 8 4 NE 1018,6 16 -
02.08.2020 11:00:00 20,6 14,4 9 5 NE 1019,0 16 0,0
02.08.2020 10:00:00 19,4 14,4 5 3 - 1019,5 16 -
02.08.2020 09:00:00 17,2 14,4 0 0 N 1019,2 16 -
02.08.2020 08:00:00 17,2 14,4 0 0 N 1018,9 16 -
02.08.2020 07:00:00 16,7 13,9 5 3 NW 1018,7 16 -
02.08.2020 06:00:00 16,1 13,9 5 3 NNW 1018,4 16 -
02.08.2020 05:00:00 16,7 13,3 5 3 NNW 1018,5 16 0,0
02.08.2020 04:00:00 17,8 13,9 0 0 N 1018,4 16 -
02.08.2020 03:00:00 18,3 13,9 0 0 N 1018,1 16 -
02.08.2020 02:00:00 18,9 14,4 13 7 NW 1018,0 16 -
02.08.2020 01:00:00 19,4 14,4 13 7 NNW 1017,9 16 -
02.08.2020 00:00:00 20,6 15,0 13 7 NW 1017,9 16 -
01.08.2020 23:00:00 21,7 15,0 9 5 NNW 1017,8 16 0,0
01.08.2020 22:00:00 23,9 15,0 9 5 - 1017,7 16 -
01.08.2020 21:00:00 24,4 12,8 5 3 N 1017,2 16 -
01.08.2020 20:00:00 26,1 12,2 11 6 NNW 1017,0 16 -
01.08.2020 19:00:00 27,2 12,8 15 8 W 1016,9 16 -
01.08.2020 18:00:00 27,2 12,8 13 7 W 1017,1 16 -
01.08.2020 17:00:00 27,2 10,0 13 7 W 1017,6 16 0,0
01.08.2020 16:00:00 26,1 10,0 15 8 W 1018,3 16 -
01.08.2020 15:00:00 25,0 12,8 11 6 WNW 1018,9 16 -
01.08.2020 14:00:00 23,3 13,3 8 4 N 1019,5 16 -
01.08.2020 13:00:00 21,1 13,9 15 8 WNW 1020,1 16 -
01.08.2020 12:00:00 19,4 13,3 13 7 W 1020,3 16 -
01.08.2020 11:00:00 18,9 13,9 8 4 NW 1020,3 16 0,0
01.08.2020 10:00:00 17,8 13,3 9 5 WNW 1020,2 16 -
01.08.2020 09:00:00 17,2 13,3 8 4 WNW 1020,3 16 -
01.08.2020 08:00:00 16,7 13,3 9 5 N 1020,1 16 -
01.08.2020 07:00:00 16,1 13,3 9 5 NW 1020,1 16 -
01.08.2020 06:00:00 16,1 13,3 5 3 NNW 1019,5 16 -
01.08.2020 05:00:00 15,6 13,3 15 8 NW 1019,2 16 0,0
01.08.2020 04:00:00 16,1 12,8 0 0 N 1019,0 16 -
01.08.2020 03:00:00 17,2 12,8 8 4 N 1018,9 16 -
01.08.2020 02:00:00 17,2 12,8 5 3 N 1018,8 16 -
01.08.2020 01:00:00 17,8 13,3 9 5 N 1018,5 16 -
01.08.2020 00:00:00 18,3 13,3 8 4 WNW 1018,3 16 -
31.07.2020 23:00:00 19,4 13,9 9 5 N 1017,9 16 0,0
31.07.2020 22:00:00 20,6 13,9 9 5 NNW 1017,6 16 -
31.07.2020 21:00:00 22,2 13,3 15 8 NNW 1016,7 16 -
31.07.2020 20:00:00 23,9 12,8 13 7 NNW 1016,3 16 -
31.07.2020 19:00:00 26,1 13,9 21 11 NNW 1015,6 16 -
31.07.2020 18:00:00 29,4 15,6 13 7 NNW 1014,9 16 -
31.07.2020 17:00:00 31,1 11,7 11 6 NW 1014,9 16 0,0
31.07.2020 16:00:00 31,1 11,7 8 4 N 1015,2 16 -
31.07.2020 15:00:00 30,0 11,1 9 5 NNE 1015,4 16 -

tt = temperature
td = dewpoint
ff = wind speed
dd = wind direction
ppp = reduced air pressure
vv = visibility
rr = precipitation

Next stations